カタログに戻る

STARLINK-35898

運用中通信VLEO
NORAD 66826·PAYLOAD·🇺🇸 United States

打ち上げ Dec 2, 2025 から Vandenberg Space Force Base

Loading…

次のパス (今後24時間)

TLE

最新Source: CelesTrak SupGP

元期: Sep 14, 2026, 22:38 UTC

1 66826C 25280F   26257.94354167 -.00022912  00000+0 -19203-2 0  2577
2 66826  70.0016 217.1151 0003102 266.9874 262.2157 14.98338690    17

AllMySatでSTARLINK-35898をリアルタイム追跡

Download on the App Store